Location: Stoke Bliss
(52.2667°N, 2.5167°W)
Time: 14:48:25
(UTC+00:00)

SeaSat 1 - Pass Details

Date: 03 March 2021
Orbit: 744 x 747 km, 108.0° (Epoch: 12 April)

Event Time Altitude Azimuth Distance (km) Brightness Sun altitude
Rises 21:10:41 0° 27° (NNE) 3,203 5.8 -29.8°
Reaches altitude 10° 21:13:13 10° 16° (NNE) 2,276 5.1 -30.2°
Maximum altitude 21:17:21 28° 319° (NW) 1,393 4.4 -30.7°
Drops below altitude 10° 21:21:30 10° 262° (W) 2,268 5.5 -31.2°
Sets 21:24:01 0° 251° (WSW) 3,190 6.2 -31.5°
